Tracking 34403 objects as of 13-Jun-2026
HD Live streaming from Space Station
objects crossing your sky now

ONEWEB-0581

Track ONEWEB-0581 now!
10-day predictions
ONEWEB-0581 is classified as:


NORAD ID: 56069
Int'l Code: 2023-043Z
Perigee: 1,203.2 km
Apogee: 1,206.6 km
Inclination: 87.9 °
Period: 109.4 minutes
Semi major axis: 7575 km
RCS: Unknown
Launch date: March 26, 2023
Source: United Kingdom (UK)
Launch site: SRIHARIKOTA (SRI)
Your satellite tracking list
Your tracking list is empty




NASA's NSSDC Master Catalog

Two Line Element Set (TLE):
1 56069U 23043Z   26163.21044717 -.00000291  00000-0 -79583-3 0  9991
2 56069  87.9100 229.7723 0002193  82.9617 277.1763 13.16594206158300
Source of the keplerian elements: AFSPC